Weather History for Hayden, CO

Change the Weather History Date:

Wednesday, January 23, 2013

  Actual Average Record
Temperature  
Mean Temperature 19 °F -  
Max Temperature 28 °F 30 °F 60 °F (1981)
Min Temperature 10 °F 7 °F -26 °F (1962)
Degree Days  
Heating Degree Days 46    
Moisture  
Dew Point 6 °F    
Average Humidity 57    
Maximum Humidity 68    
Minimum Humidity 43    
Precipitation  
Precipitation 0.00 in - - ()
Sea Level Pressure  
Sea Level Pressure 30.31 in    
Wind  
Wind Speed 12 mph (SSE)    
Max Wind Speed 21 mph    
Max Gust Speed -    
Visibility 10 miles    
Events      
Averages and records for this station are not official NWS values.
T = Trace of Precipitation, MM = Missing Value Source: NWS Daily Summary

Daily Weather History Graph

Daily Weather History Graph

Search for Another Location

Airport:

Trip Planner

Search our weather history database for the weather conditions in past years. The results will help you decide how hot, cold, wet, or windy it might be!

Date:

Astronomy

Jan. 23, 2013 Rise Set
Actual Time 7:25 AM MST 5:16 PM MST
Civil Twilight 6:56 AM MST 5:45 PM MST
Nautical Twilight 6:22 AM MST 6:19 PM MST
Astronomical Twilight 5:50 AM MST 6:51 PM MST
Moon 2:29 PM MST (1/23) 4:39 AM MST (1/23)
Length of Visible Light 10h 49m
Length of Day
9h 50m
Waxing Gibbous, 89% of the Moon is Illuminated
Jan 23
Waxing Gibbous
Jan 26
Full
Feb 3
Last Quarter
Feb 10
New
Feb 17
First Quarter

Hourly Weather History & Observations

Time (MST) Temp. Windchill Dew Point Humidity Pressure Visibility Wind Dir Wind Speed Gust Speed Precip Events Conditions
12:35 AM 14.0 °F -1.4 °F 3.2 °F 62% 30.35 in 10.0 mi SE 15.0 mph - N/A   Clear
12:55 AM 14.0 °F -2.0 °F 1.4 °F 57% 30.34 in 10.0 mi SE 16.1 mph - N/A   Clear
1:15 AM 15.8 °F 0.9 °F 3.2 °F 58% 30.34 in 10.0 mi SE 15.0 mph - N/A   Clear
1:35 AM 15.8 °F -0.6 °F 1.4 °F 53% 30.34 in 10.0 mi SSE 18.4 mph - N/A   Clear
1:55 AM 15.8 °F -0.2 °F 3.2 °F 58% 30.35 in 10.0 mi SE 17.3 mph - N/A   Clear
2:15 AM 15.8 °F 0.9 °F 3.2 °F 58% 30.36 in 10.0 mi SE 15.0 mph - N/A   Clear
2:55 AM 10.4 °F 4.0 °F -2.2 °F 57% 30.37 in 10.0 mi South 3.5 mph - N/A   Clear
3:15 AM 12.2 °F -4.8 °F 3.2 °F 67% 30.36 in 10.0 mi SSE 17.3 mph - N/A   Clear
3:35 AM 12.2 °F -3.1 °F 3.2 °F 67% 30.35 in 10.0 mi SSE 13.8 mph - N/A   Clear
4:15 AM 12.2 °F -1.0 °F 1.4 °F 62% 30.34 in 10.0 mi SSE 10.4 mph - N/A   Clear
4:35 AM 12.2 °F -1.0 °F -0.4 °F 57% 30.34 in 10.0 mi SSE 10.4 mph - N/A   Clear
4:55 AM 12.2 °F -3.1 °F -0.4 °F 57% 30.34 in 10.0 mi SSE 13.8 mph - N/A   Clear
5:15 AM 12.2 °F -2.5 °F 1.4 °F 62% 30.34 in 10.0 mi South 12.7 mph - N/A   Clear
5:35 AM 12.2 °F -3.1 °F 1.4 °F 62% 30.34 in 10.0 mi SSE 13.8 mph - N/A   Clear
5:55 AM 10.4 °F -6.6 °F -0.4 °F 62% 30.34 in 10.0 mi SE 16.1 mph - N/A   Clear
6:15 AM 14.0 °F -2.5 °F 1.4 °F 57% 30.34 in 10.0 mi SSE 17.3 mph - N/A   Clear
6:35 AM 12.2 °F -3.7 °F -0.4 °F 57% 30.35 in 10.0 mi SE 15.0 mph - N/A   Clear
6:55 AM 10.4 °F -5.4 °F -0.4 °F 62% 30.34 in 10.0 mi SSE 13.8 mph - N/A   Clear
7:15 AM 10.4 °F -4.8 °F -0.4 °F 62% 30.34 in 10.0 mi SSE 12.7 mph - N/A   Clear
7:35 AM 10.4 °F -5.4 °F -0.4 °F 62% 30.34 in 10.0 mi SSE 13.8 mph - N/A   Clear
7:55 AM 10.4 °F -6.0 °F -0.4 °F 62% 30.33 in 10.0 mi SSE 15.0 mph - N/A   Clear
8:15 AM 14.0 °F -3.9 °F 1.4 °F 57% 30.33 in 10.0 mi SSE 20.7 mph - N/A   Clear
8:35 AM 14.0 °F -2.5 °F 1.4 °F 57% 30.33 in 10.0 mi SSE 17.3 mph - N/A   Clear
8:55 AM 15.8 °F 1.4 °F 1.4 °F 53% 30.33 in 10.0 mi SSE 13.8 mph - N/A   Clear
9:15 AM 15.8 °F 2.1 °F 3.2 °F 58% 30.34 in 10.0 mi SSE 12.7 mph - N/A   Clear
9:35 AM 17.6 °F 3.7 °F 3.2 °F 53% 30.35 in 10.0 mi SSE 13.8 mph - N/A   Clear
9:55 AM 19.4 °F 8.6 °F 5.0 °F 54% 30.35 in 10.0 mi SSE 9.2 mph - N/A   Clear
10:15 AM 19.4 °F 7.9 °F 5.0 °F 54% 30.34 in 10.0 mi SSE 10.4 mph - N/A   Clear
10:35 AM 19.4 °F 9.5 °F 6.8 °F 58% 30.35 in 10.0 mi South 8.1 mph - N/A   Clear
10:55 AM 19.4 °F 11.5 °F 8.6 °F 63% 30.35 in 10.0 mi SSE 5.8 mph - N/A   Clear
11:15 AM 21.2 °F 7.8 °F 6.8 °F 54% 30.35 in 10.0 mi SE 15.0 mph - N/A   Clear
11:35 AM 21.2 °F 7.3 °F 5.0 °F 50% 30.34 in 10.0 mi SE 16.1 mph - N/A   Clear
11:55 AM 21.2 °F - 8.6 °F 58% 30.33 in 10.0 mi Calm Calm - N/A   Clear
12:15 PM 24.8 °F 19.1 °F 10.4 °F 54% 30.32 in 10.0 mi SSE 4.6 mph - N/A   Clear
12:35 PM 26.6 °F 15.2 °F 8.6 °F 47% 30.31 in 10.0 mi SE 13.8 mph - N/A   Clear
12:55 PM 26.6 °F 22.6 °F 10.4 °F 51% 30.31 in 10.0 mi South 3.5 mph - N/A   Clear
1:15 PM 24.8 °F 17.9 °F 10.4 °F 54% 30.30 in 10.0 mi South 5.8 mph - N/A   Clear
1:35 PM 26.6 °F - 12.2 °F 55% 30.30 in 10.0 mi Calm Calm - N/A   Clear
1:55 PM 28.4 °F 18.0 °F 8.6 °F 43% 30.29 in 10.0 mi SE 12.7 mph - N/A   Clear
2:15 PM 28.4 °F 19.1 °F 8.6 °F 43% 30.28 in 10.0 mi SE 10.4 mph - N/A   Clear
2:35 PM 26.6 °F 22.6 °F 10.4 °F 51% 30.28 in 10.0 mi South 3.5 mph - N/A   Clear
2:55 PM 19.4 °F - 6.8 °F 58% 30.28 in 10.0 mi Calm Calm - N/A   Clear
3:15 PM 24.8 °F - 10.4 °F 54% 30.28 in 10.0 mi Calm Calm - N/A   Clear
3:35 PM 21.2 °F - 8.6 °F 58% 30.28 in 10.0 mi Calm Calm - N/A   Clear
3:55 PM 26.6 °F 16.8 °F 10.4 °F 51% 30.28 in 10.0 mi ESE 10.4 mph - N/A   Clear
4:15 PM 24.8 °F 16.9 °F 10.4 °F 54% 30.28 in 10.0 mi SE 6.9 mph - N/A   Clear
4:35 PM 26.6 °F 16.2 °F 8.6 °F 47% 30.28 in 10.0 mi ESE 11.5 mph - N/A   Clear
4:55 PM 24.8 °F 20.5 °F 8.6 °F 50% 30.28 in 10.0 mi ESE 3.5 mph - N/A   Clear
5:15 PM 24.8 °F 17.9 °F 8.6 °F 50% 30.29 in 10.0 mi SSE 5.8 mph - N/A   Clear
5:35 PM 21.2 °F 14.9 °F 6.8 °F 54% 30.29 in 10.0 mi East 4.6 mph - N/A   Clear
5:55 PM 21.2 °F - 8.6 °F 58% 30.29 in 10.0 mi Calm Calm - N/A   Clear
6:15 PM 21.2 °F 14.9 °F 8.6 °F 58% 30.29 in 10.0 mi SE 4.6 mph - N/A   Clear
6:35 PM 21.2 °F 14.9 °F 8.6 °F 58% 30.28 in 10.0 mi South 4.6 mph - N/A   Clear
7:15 PM 24.8 °F 14.6 °F 8.6 °F 50% 30.28 in 10.0 mi SE 10.4 mph - N/A   Clear
7:35 PM 21.2 °F 12.6 °F 8.6 °F 58% 30.28 in 10.0 mi South 6.9 mph - N/A   Clear
7:55 PM 15.8 °F 10.2 °F 6.8 °F 68% 30.27 in 10.0 mi SSW 3.5 mph - N/A   Clear
8:15 PM 19.4 °F - 8.6 °F 63% 30.28 in 10.0 mi Calm Calm - N/A   Clear
8:35 PM 17.6 °F 9.3 °F 6.8 °F 63% 30.28 in 10.0 mi SSE 5.8 mph - N/A   Clear
8:55 PM 19.4 °F 6.6 °F 8.6 °F 63% 30.27 in 10.0 mi SE 12.7 mph - N/A   Clear
9:15 PM 19.4 °F 6.6 °F 8.6 °F 63% 30.26 in 10.0 mi SE 12.7 mph - N/A   Clear
9:35 PM 21.2 °F 8.9 °F 8.6 °F 58% 30.26 in 10.0 mi SE 12.7 mph - N/A   Clear
9:55 PM 21.2 °F 7.8 °F 8.6 °F 58% 30.26 in 10.0 mi SSE 15.0 mph - N/A   Clear
10:15 PM 21.2 °F 8.3 °F 8.6 °F 58% 30.26 in 10.0 mi SSE 13.8 mph - N/A   Clear
10:35 PM 17.6 °F 10.7 °F 6.8 °F 63% 30.27 in 10.0 mi SSW 4.6 mph - N/A   Clear
11:15 PM 19.4 °F 9.5 °F 8.6 °F 63% 30.27 in 10.0 mi SSE 8.1 mph - N/A   Clear
11:35 PM 21.2 °F 10.1 °F 8.6 °F 58% 30.27 in 10.0 mi SSE 10.4 mph - N/A   Clear
11:55 PM 17.6 °F 8.2 °F 6.8 °F 63% 30.27 in 10.0 mi South 6.9 mph - N/A   Clear